Date String (YYYY-MM-DD hh:mm:ss) UTC,Instrument flags,absolute air pressure of the measurement (hPa),sample flow rate (lpm),inlet stack bypass flow (lpm),air temperature of the measurement (°C),ambient temperature measured by the external sensor (°C),aerosol sample conditioner tube jacket temperature (°C),OPC LED temperature (°C),internal box temperature (°C),relative humidity of the measurement (%),span deviation,mass concentration of particles derived from Lorenz-Mie calculation of OPC scattering (μg/m³),mass concentration of particles derived from Lorenz-Mie calculation of OPC scattering (μg/m³),mass concentration of particles derived from Lorenz-Mie calculation of OPC scattering (μg/m³)
DateTimeUTC,F1_M11,P_M11,Q1_M11,Q2_M11,T1_M11,T2_M11,T3_M11,T4_M11,T5_M11,U1_M11,ZSPAN_M11,X0_M11,X2_M11,X1_M11
2023-11-21 03:00:00,SystemResetWarning,0839.9,5.00,000.00,023.2,022.2,000.0,031.5,024.5,14.5,0000.0,0004.16,0001.19,0000.98
2023-11-21 03:01:00,SystemResetWarning,0840.0,4.99,000.00,023.2,022.2,000.0,031.5,024.4,14.5,0000.0,0004.14,0001.19,0000.98
2023-11-21 03:02:00,SystemResetWarning,0840.1,4.99,000.00,023.2,022.2,000.0,031.5,024.5,14.5,0000.0,0004.21,0001.18,0000.98
2023-11-21 03:03:00,SystemResetWarning,0840.1,5.00,000.00,023.2,022.2,000.0,031.5,024.5,14.5,0000.0,0004.70,0001.19,0000.97
2023-11-21 03:04:00,SystemResetWarning,0840.1,5.00,000.00,023.2,022.2,000.0,031.5,024.5,14.5,0000.0,0004.82,0001.19,0000.97
2023-11-21 03:05:00,SystemResetWarning,0840.1,5.01,000.00,023.2,022.2,000.0,031.5,024.5,14.5,0000.0,0004.80,0001.18,0000.97
2023-11-21 03:06:00,SystemResetWarning,0840.0,5.01,000.00,023.2,022.2,000.0,031.5,024.5,14.5,0000.0,0004.77,0001.17,0000.96
2023-11-21 03:07:00,SystemResetWarning,0840.0,5.00,000.00,023.2,022.2,000.0,031.5,024.5,14.5,0000.0,0004.02,0001.17,0000.97
2023-11-21 03:08:00,SystemResetWarning,0840.0,5.00,000.00,023.2,022.2,000.0,031.5,024.4,14.5,0000.0,0003.37,0001.17,0000.97
2023-11-21 03:09:00,SystemResetWarning,0840.0,5.01,000.00,023.2,022.2,000.0,031.5,024.4,14.5,0000.0,0003.39,0001.17,0000.97
2023-11-21 03:10:00,SystemResetWarning,0840.0,5.00,000.00,023.2,022.2,000.0,031.5,024.4,14.6,0000.0,0003.21,0001.19,0000.97
2023-11-21 03:11:00,SystemResetWarning,0840.0,5.00,000.00,023.2,022.2,000.0,031.5,024.4,14.6,0000.0,0003.08,0001.19,0000.97
2023-11-21 03:12:00,SystemResetWarning,0840.0,5.00,000.00,023.2,022.2,000.0,031.5,024.5,14.6,0000.0,0003.29,0001.21,0000.97
2023-11-21 03:13:00,SystemResetWarning,0840.0,5.00,000.00,023.2,022.3,000.0,031.5,024.5,14.6,0000.0,0003.20,0001.20,0000.97
2023-11-21 03:14:00,SystemResetWarning,0840.0,5.00,000.00,023.2,022.3,000.0,031.5,024.5,14.6,0000.0,0002.62,0001.16,0000.97
2023-11-21 03:15:00,SystemResetWarning,0840.0,5.01,000.00,023.2,022.3,000.0,031.5,024.5,14.6,0000.0,0002.45,0001.13,0000.96
2023-11-21 03:16:00,SystemResetWarning,0840.0,5.01,000.00,023.2,022.3,000.0,031.5,024.5,14.6,0000.0,0002.67,0001.16,0000.97
2023-11-21 03:17:00,SystemResetWarning,0840.0,5.00,000.00,023.2,022.3,000.0,031.5,024.5,14.6,0000.0,0002.83,0001.19,0000.98
2023-11-21 03:18:00,SystemResetWarning,0840.1,5.00,000.00,023.2,022.3,000.0,031.5,024.5,14.5,0000.0,0002.90,0001.22,0000.98
2023-11-21 03:19:00,SystemResetWarning,0840.1,5.00,000.00,023.2,022.3,000.0,031.5,024.5,14.6,0000.0,0002.88,0001.21,0000.98
2023-11-21 03:20:00,SystemResetWarning,0840.1,5.01,000.00,023.2,022.3,000.0,031.5,024.5,14.5,0000.0,0002.84,0001.20,0000.98
2023-11-21 03:21:00,SystemResetWarning,0840.1,5.00,000.00,023.2,022.3,000.0,031.5,024.5,14.5,0000.0,0002.81,0001.19,0000.98
2023-11-21 03:22:00,SystemResetWarning,0840.1,4.99,000.00,023.2,022.3,000.0,031.5,024.5,14.6,0000.0,0002.28,0001.21,0000.98
2023-11-21 03:23:00,SystemResetWarning,0840.1,5.01,000.00,023.2,022.3,000.0,031.5,024.5,14.6,0000.0,0002.08,0001.20,0000.98
2023-11-21 03:24:00,SystemResetWarning,0840.1,5.00,000.00,023.2,022.3,000.0,031.5,024.5,14.6,0000.0,0002.65,0001.21,0000.98
2023-11-21 03:25:00,SystemResetWarning,0840.1,5.00,000.00,023.2,022.3,000.0,031.5,024.5,14.6,0000.0,0003.20,0001.23,0000.98
2023-11-21 03:26:00,SystemResetWarning,0840.1,5.00,000.00,023.2,022.3,000.0,031.5,024.5,14.6,0000.0,0003.33,0001.27,0000.99
2023-11-21 03:27:00,SystemResetWarning,0840.1,5.00,000.00,023.2,022.3,000.0,031.5,024.5,14.5,0000.0,0003.26,0001.24,0000.99
2023-11-21 03:28:00,SystemResetWarning,0840.1,5.00,000.00,023.2,022.3,000.0,031.5,024.5,14.5,0000.0,0003.28,0001.22,0000.99
2023-11-21 03:29:00,SystemResetWarning,0840.1,5.00,000.00,023.2,022.3,000.0,031.5,024.5,14.6,0000.0,0003.20,0001.21,0000.98
2023-11-21 03:30:00,SystemResetWarning,0840.1,5.00,000.00,023.2,022.3,000.0,031.5,024.5,14.5,0000.0,0003.20,0001.19,0000.98
2023-11-21 03:31:00,SystemResetWarning,0840.2,5.00,000.00,023.2,022.3,000.0,031.5,024.5,14.5,0000.0,0004.49,0001.19,0000.98
2023-11-21 03:32:00,SystemResetWarning,0840.2,4.99,000.00,023.2,022.3,000.0,031.5,024.5,14.5,0000.0,0004.51,0001.19,0000.98
2023-11-21 03:33:00,SystemResetWarning,0840.2,5.00,000.00,023.2,022.3,000.0,031.5,024.4,14.5,0000.0,0004.50,0001.19,0000.98
2023-11-21 03:34:00,SystemResetWarning,0840.2,5.00,000.00,023.2,022.2,000.0,031.5,024.4,14.6,0000.0,0004.39,0001.18,0000.98
2023-11-21 03:35:00,SystemResetWarning,0840.2,5.00,000.00,023.2,022.3,000.0,031.5,024.4,14.5,0000.0,0004.64,0001.20,0000.99
2023-11-21 03:36:00,SystemResetWarning,0840.2,5.01,000.00,023.2,022.3,000.0,031.5,024.4,14.5,0000.0,0004.90,0001.21,0000.98
2023-11-21 03:37:00,SystemResetWarning,0840.2,5.00,000.00,023.2,022.3,000.0,031.5,024.4,14.6,0000.0,0005.19,0001.21,0000.98
2023-11-21 03:38:00,SystemResetWarning,0840.2,5.01,000.00,023.2,022.3,000.0,031.5,024.4,14.5,0000.0,0005.16,0001.21,0000.98
2023-11-21 03:39:00,SystemResetWarning,0840.3,5.00,000.00,023.2,022.3,000.0,031.5,024.4,14.5,0000.0,0004.86,0001.20,0000.99
2023-11-21 03:40:00,SystemResetWarning,0840.3,5.00,000.00,023.2,022.3,000.0,031.5,024.4,14.5,0000.0,0004.90,0001.20,0000.98
2023-11-21 03:41:00,SystemResetWarning,0840.4,5.00,000.00,023.2,022.2,000.0,031.5,024.4,14.5,0000.0,0005.23,0001.23,0000.99
2023-11-21 03:42:00,SystemResetWarning,0840.4,5.00,000.00,023.2,022.2,000.0,031.5,024.4,14.6,0000.0,0004.59,0001.24,0001.00
2023-11-21 03:43:00,SystemResetWarning,0840.4,5.00,000.00,023.2,022.2,000.0,031.5,024.5,14.6,0000.0,0004.47,0001.27,0001.00
2023-11-21 03:44:00,SystemResetWarning,0840.4,5.00,000.00,023.2,022.2,000.0,031.5,024.4,14.6,0000.0,0004.40,0001.25,0000.99
2023-11-21 03:45:00,SystemResetWarning,0840.4,5.00,000.00,023.2,022.2,000.0,031.5,024.4,14.6,0000.0,0004.45,0001.26,0001.00
2023-11-21 03:46:00,SystemResetWarning,0840.4,4.99,000.00,023.2,022.3,000.0,031.5,024.4,14.6,0000.0,0003.94,0001.30,0001.03
2023-11-21 03:47:00,SystemResetWarning,0840.4,5.01,000.00,023.2,022.2,000.0,031.5,024.5,14.6,0000.0,0003.22,0001.34,0001.06
2023-11-21 03:48:00,SystemResetWarning,0840.5,5.00,000.00,023.2,022.3,000.0,031.5,024.4,14.6,0000.0,0004.10,0001.34,0001.09
2023-11-21 03:49:00,SystemResetWarning,0840.5,5.00,000.00,023.2,022.3,000.0,031.5,024.4,14.6,0000.0,0004.81,0001.42,0001.11
2023-11-21 03:50:00,SystemResetWarning,0840.5,5.00,000.00,023.2,022.3,000.0,031.5,024.4,14.6,0000.0,0004.93,0001.47,0001.14
2023-11-21 03:51:00,SystemResetWarning,0840.5,5.00,000.00,023.2,022.3,000.0,031.5,024.4,14.6,0000.0,0005.07,0001.48,0001.18
2023-11-21 03:52:00,SystemResetWarning,0840.6,5.00,000.00,023.2,022.3,000.0,031.5,024.5,14.6,0000.0,0005.33,0001.50,0001.19
2023-11-21 03:53:00,SystemResetWarning,0840.6,5.00,000.00,023.2,022.3,000.0,031.5,024.4,14.6,0000.0,0005.42,0001.52,0001.19
2023-11-21 03:54:00,SystemResetWarning,0840.6,4.99,000.00,023.2,022.3,000.0,031.5,024.4,14.6,0000.0,0005.61,0001.51,0001.21
2023-11-21 03:55:00,SystemResetWarning,0840.6,5.00,000.00,023.2,022.3,000.0,031.5,024.4,14.6,0000.0,0006.42,0001.53,0001.23
2023-11-21 03:56:00,SystemResetWarning,0840.6,5.00,000.00,023.2,022.3,000.0,031.5,024.4,14.6,0000.0,0007.36,0001.54,0001.23
2023-11-21 03:57:00,SystemResetWarning,0840.6,5.00,000.00,023.2,022.3,000.0,031.5,024.4,14.6,0000.0,0007.37,0001.54,0001.22
2023-11-21 03:58:00,SystemResetWarning,0840.7,5.00,000.00,023.2,022.3,000.0,031.5,024.5,14.7,0000.0,0007.30,0001.50,0001.20
2023-11-21 03:59:00,SystemResetWarning,0840.7,5.01,000.00,023.2,022.3,000.0,031.5,024.4,14.7,0000.0,0005.97,0001.50,0001.19
